Wind_Speed
28 27 24 24 26 26 26 26 27 27 26 24 29 33 33 35 40 45 17 18 6 2 5 2 4 8 6 6 6 4 8 5 4 5 6 6 7 10 13 13 11 11 8 9 12 14 15 13 1 5 3 4 6 6
26 25 24 23 24 25 26 27 28 27 26 29 30 33 37 36 44 42 13 19 8 5 2 6 4 2 17 14 5 3 5 7 6 5 5 5 7 5 11 9 13 12 8 9 9 5 5 7 6 8 11 8 5 6
25 24 22 21 22 24 25 25 26 29 30 31 29 34 38 38 43 33 19 26 11 3 2 4 4 1 3 4 5 5 3 3 4 1 2 2 5 5 8 9 11 12 10 8 5 3 6 6 4 8 7 6 6 3
23 21 20 21 22 22 23 27 32 35 37 34 29 34 35 47 48 30 29 31 15 5 3 3 8 8 4 3 3 2 2 3 2 2 3 3 4 6 7 7 4 8 10 8 8 8 10 11 8 5 6 9 8 3
20 18 18 19 19 22 28 36 37 30 29 34 34 32 38 45 42 33 30 24 18 5 3 5 5 8 7 5 6 5 4 2 2 3 3 4 7 7 7 8 8 9 9 6 5 7 8 10 7 5 10 7 9 6
15 15 13 12 13 22 30 30 30 32 35 42 42 37 42 43 40 30 3 5 9 9 4 4 3 11 12 10 9 8 5 4 2 2 3 5 9 4 4 6 11 13 15 16 13 12 13 8 11 15 8 8 7 7
14 11 8 7 12 14 4 26 41 48 49 44 46 43 37 27 22 4 3 20 16 8 3 5 5 8 16 10 10 6 8 4 4 3 4 7 7 4 5 13 14 16 17 15 15 15 16 16 10 14 7 5 6 8
13 8 7 3 10 11 22 36 48 55 55 53 47 39 32 29 20 15 23 20 9 6 2 3 4 6 15 5 3 6 5 5 4 4 4 6 6 6 7 11 16 18 19 19 17 17 17 16 17 14 9 8 8 8
15 10 14 7 10 18 26 35 45 50 49 47 39 29 19 9 5 7 16 15 11 5 3 2 6 5 9 6 5 3 2 3 3 5 8 6 6 7 8 14 17 17 17 17 17 16 17 16 16 8 10 9 9 7
18 14 16 16 14 23 28 34 39 45 46 35 16 9 3 6 28 13 4 3 5 3 1 2 5 4 8 7 6 4 3 3 4 6 5 7 12 18 21 20 17 16 17 16 17 14 13 14 6 6 8 8 8 6
21 18 17 21 22 24 28 35 40 40 21 6 4 3 18 15 3 3 4 3 2 1 3 5 8 6 7 8 5 5 4 2 3 5 5 4 6 12 17 19 20 20 20 20 18 18 14 14 8 6 7 8 10 13
22 22 21 23 25 27 30 35 30 12 7 9 19 16 6 1 3 4 4 4 4 5 6 9 9 9 5 4 4 4 3 3 6 3 2 3 7 14 7 6 9 10 9 10 12 16 14 8 8 8 10 9 13 17
24 24 24 25 26 28 29 27 14 24 25 9 5 3 4 3 4 6 8 5 5 4 4 7 9 7 4 4 2 3 3 5 3 3 4 4 7 6 8 7 8 9 11 11 10 4 14 10 13 16 11 18 21 20
28 26 27 27 28 29 31 16 19 14 5 3 2 4 4 5 5 5 7 8 5 5 7 9 9 4 3 6 3 5 4 3 4 4 8 4 5 5 5 4 5 6 7 7 10 12 13 13 14 19 21 22 23 19
27 27 26 27 27 28 28 17 16 2 4 1 3 3 6 4 4 5 5 5 5 5 7 4 2 5 4 3 4 3 4 5 5 6 6 4 5 4 4 4 5 4 4 7 8 10 11 15 16 16 17 18 19 20
28 26 18 27 28 27 22 12 5 3 6 2 3 2 3 6 4 2 3 2 2 4 4 3 2 2 4 3 6 6 5 6 4 3 4 3 3 2 1 3 3 3 5 7 10 12 14 13 14 15 17 17 17 18
23 11 23 25 24 25 21 9 3 1 3 3 0 2 3 3 5 2 5 4 6 5 5 4 5 6 2 4 8 5 6 6 5 3 2 3 4 1 3 4 3 6 7 10 12 12 14 17 18 16 11 13 14 14
14 26 27 27 25 22 13 4 2 3 4 4 3 2 1 4 6 5 5 5 6 7 8 7 3 8 4 3 3 1 3 2 1 2 3 2 3 3 5 6 8 9 10 12 13 14 15 14 13 11 16 16 15 15
21 29 30 28 23 9 4 3 3 3 3 3 5 3 4 4 7 7 6 7 9 7 4 3 6 6 6 4 4 2 1 1 1 1 1 0 3 3 8 9 10 11 12 13 14 12 13 13 13 15 16 16 14 15
24 28 30 26 21 2 2 2 2 3 3 1 2 3 3 3 2 3 5 6 7 7 6 6 8 5 2 2 1 2 1 1 1 2 3 3 4 7 9 11 10 13 13 13 12 13 11 12 12 14 15 14 15 15
24 20 25 18 6 3 2 2 4 3 3 3 3 2 2 2 3 3 5 3 5 4 7 5 3 3 4 3 3 1 0 1 2 0 2 3 5 7 8 9 14 12 11 10 8 9 11 10 12 13 13 14 15 16
11 22 10 6 2 3 3 5 3 3 2 3 2 3 3 3 3 3 2 4 3 4 1 1 2 3 3 2 3 1 3 1 1 1 3 7 4 3 3 8 9 5 8 9 10 10 10 13 13 14 14 16 18 17
17 6 3 2 3 3 3 2 3 2 3 3 1 3 3 2 2 5 3 3 2 2 3 3 5 4 5 6 4 3 3 4 2 2 3 3 6 7 8 8 8 8 6 7 12 13 12 14 16 15 17 17 18 18
6 2 2 4 6 4 1 2 2 3 3 3 3 2 2 2 4 3 3 3 3 5 5 7 6 4 4 7 5 4 5 4 5 5 3 4 3 3 7 7 8 8 11 12 12 13 14 13 15 16 16 17 18 18
2 4 3 5 4 3 3 3 3 3 4 4 3 3 2 3 3 3 3 3 5 5 6 6 6 5 5 4 3 5 3 4 2 4 3 2 9 8 7 7 6 7 10 12 12 12 12 14 14 15 16 18 18 18
4 4 5 2 1 3 3 3 3 3 2 2 4 1 1 3 3 4 0 2 2 4 3 4 4 4 3 4 4 3 4 2 2 4 5 4 6 7 6 6 5 5 8 10 13 13 14 13 14 16 16 18 18 19
4 4 4 2 3 4 4 3 5 4 3 3 2 2 2 3 4 2 2 3 2 3 5 5 3 1 1 6 10 8 6 5 6 6 9 6 5 6 4 3 5 9 13 12 14 15 15 14 15 15 15 17 17 18
3 1 4 2 3 3 3 3 3 3 3 1 2 3 3 2 3 2 3 2 2 2 4 5 5 4 5 11 13 10 7 6 9 9 8 5 4 3 4 6 9 11 12 12 13 13 14 15 16 15 15 15 15 17
3 0 2 3 3 4 4 3 3 0 2 2 2 2 2 3 2 2 1 1 1 3 5 5 3 4 7 9 8 8 8 10 9 6 7 5 4 4 5 9 12 12 13 13 12 13 14 16 16 17 17 15 15 17
4 2 3 3 3 4 2 1 3 2 2 2 4 6 6 4 4 5 6 6 7 6 4 4 9 8 8 9 8 7 8 9 6 2 3 4 6 14 13 12 13 14 14 15 15 16 15 18 20 21 20 18 17 18
1 3 4 4 3 2 0 1 4 6 5 4 4 5 7 3 4 11 13 11 8 6 6 6 7 9 9 10 10 7 6 8 9 6 5 9 11 12 13 14 14 15 16 16 15 16 18 17 16 17 17 16 17 17
3 4 3 3 2 3 1 3 2 3 4 5 6 5 3 3 4 5 8 13 11 9 11 11 10 9 8 7 7 5 2 11 9 8 9 9 11 12 14 15 16 16 16 15 14 16 17 16 16 16 17 17 17 17
3 4 4 4 3 3 3 2 3 3 4 4 5 5 5 4 5 1 4 11 10 9 11 9 6 14 14 9 8 8 8 9 9 10 10 11 13 14 14 15 16 17 17 16 17 17 17 16 17 17 17 18 17 18
Wind_Direction
241 239 243 248 248 251 250 251 246 247 248 256 256 255 249 227 200 199 195 190 209 224 40 351 157 137 142 177 163 163 163 201 184 212 211 219 239 238 244 246 211 188 199 208 228 247 258 253 39 262 350 191 284 286
232 237 241 247 251 251 252 252 252 246 256 261 263 241 225 219 203 184 167 180 112 71 25 334 332 248 202 191 140 206 184 183 179 197 225 233 252 221 243 247 230 258 239 207 202 215 37 7 27 351 310 309 340 315
229 238 243 249 255 252 256 248 247 252 255 257 246 226 207 203 202 174 145 156 136 98 41 345 193 111 88 105 110 168 242 277 225 212 310 286 263 259 241 248 253 250 266 251 276 276 280 229 242 276 323 340 348 354
229 237 243 252 258 258 248 257 263 256 255 242 228 206 210 204 168 163 144 161 154 134 133 202 277 195 176 148 191 170 41 28 344 282 247 258 257 272 282 283 282 280 345 284 269 283 273 280 306 10 337 328 309 224
225 233 243 256 261 252 267 277 269 251 215 205 200 189 177 154 155 147 145 165 173 170 125 125 202 200 188 202 221 203 192 179 232 239 235 235 250 269 267 272 269 272 269 254 251 256 264 269 316 303 293 301 295 267
214 225 242 257 249 288 289 267 241 202 178 167 164 164 150 150 140 124 119 186 153 149 116 135 204 183 197 192 204 195 212 254 194 259 253 260 271 254 246 254 250 253 261 271 278 283 280 268 236 239 240 276 249 244
192 210 217 217 296 320 312 139 138 149 153 146 137 138 134 112 107 95 156 151 150 145 109 123 144 177 189 201 225 227 245 248 238 224 243 251 255 261 262 258 267 276 276 277 275 276 267 269 258 248 237 214 167 215
181 175 157 156 346 62 72 106 126 124 120 125 124 123 115 101 83 70 98 118 120 98 137 145 122 152 179 185 201 220 217 222 233 238 250 254 253 243 247 249 250 252 255 262 267 275 281 281 285 287 148 172 176 205
167 151 132 113 54 100 88 92 108 114 119 119 114 110 88 59 66 100 88 73 59 51 118 156 157 169 175 186 191 177 175 240 241 233 232 245 235 231 240 243 246 257 261 261 257 263 268 253 249 213 163 182 185 193
159 153 125 122 90 107 112 110 112 114 118 116 99 67 69 95 122 115 45 46 23 6 313 226 221 153 185 187 183 151 177 236 245 226 227 237 249 256 254 259 260 256 258 256 252 261 271 278 203 193 188 172 174 161
154 152 138 132 127 119 123 126 126 125 114 48 56 57 129 126 64 54 60 56 91 334 234 229 225 171 201 192 185 195 174 232 255 227 221 233 243 243 245 241 241 243 246 251 257 263 246 262 187 172 151 139 145 146
148 147 146 141 140 140 138 134 129 100 74 95 109 108 132 145 77 104 137 162 203 213 197 209 214 220 172 164 213 194 181 235 247 298 250 240 241 258 253 13 8 4 344 312 262 233 238 162 168 148 141 146 148 143
147 146 145 146 147 146 144 136 109 111 110 102 86 101 147 159 160 184 175 194 194 204 218 206 213 196 143 170 191 177 154 244 285 238 231 233 257 358 28 7 355 7 345 315 287 82 105 102 114 131 119 124 130 127
145 145 149 149 151 152 152 136 135 132 79 80 110 117 206 171 214 202 223 217 212 213 223 220 206 175 168 174 189 189 191 240 248 239 253 256 55 30 14 6 17 24 8 46 63 73 85 92 91 101 118 135 132 134
152 149 150 155 157 158 157 153 156 133 27 168 179 193 203 203 218 206 251 261 243 213 209 163 110 214 164 146 208 207 207 227 230 253 254 76 65 16 359 8 85 84 67 74 80 89 96 101 105 107 120 127 130 136
149 147 152 164 164 164 164 156 178 325 321 268 239 251 268 203 223 229 254 212 297 225 161 163 141 208 209 195 198 203 231 230 249 334 51 75 81 355 47 79 88 103 104 95 94 102 105 109 114 116 118 125 136 146
145 141 162 160 157 161 161 160 176 333 286 261 294 357 314 287 241 221 200 208 192 218 188 193 183 211 221 224 205 205 233 259 351 63 27 21 328 21 115 109 121 135 116 112 114 118 113 115 119 119 119 129 136 146
126 140 151 153 150 151 174 216 230 252 248 240 246 168 10 304 286 227 221 237 213 216 226 244 263 206 222 256 243 292 42 89 41 341 317 10 300 147 154 149 150 144 134 127 122 125 131 141 142 139 142 145 141 144
143 151 153 152 153 142 162 220 203 269 260 275 272 196 214 231 236 239 227 228 226 231 215 239 236 247 253 266 322 89 72 87 5 115 120 166 241 179 140 144 149 144 139 140 144 146 153 158 140 147 148 151 147 155
150 159 159 156 168 217 221 221 217 260 280 241 218 238 224 225 198 204 235 237 222 225 227 222 233 245 323 77 65 78 48 359 266 255 227 157 173 158 152 162 155 150 149 151 137 142 143 124 141 149 158 161 154 156
136 159 165 171 212 245 297 294 228 250 313 265 285 257 246 179 204 204 212 212 221 223 226 224 240 98 70 69 73 67 34 270 257 242 321 160 172 182 177 174 149 160 149 146 154 153 152 151 149 150 149 142 150 152
137 157 169 207 310 281 259 201 272 310 265 261 235 207 238 204 187 184 160 208 218 218 246 238 176 140 153 179 150 141 115 191 157 149 108 128 162 163 171 160 170 159 157 154 162 160 152 146 144 145 150 145 146 147
136 141 104 188 267 259 263 229 261 218 267 301 264 242 221 196 123 148 224 224 214 201 190 211 131 132 112 125 142 158 184 211 160 124 151 193 155 160 158 164 172 154 143 147 148 150 145 150 154 155 147 145 141 138
108 75 215 225 207 251 176 239 218 268 266 257 266 256 218 166 165 233 249 198 157 161 161 153 146 138 167 183 192 167 184 189 125 123 143 144 144 125 128 120 122 143 152 140 147 142 146 158 159 152 156 148 149 153
174 195 266 243 234 237 241 241 224 244 260 220 254 243 201 187 220 229 242 167 161 186 186 177 188 193 201 179 136 119 163 245 177 151 173 219 131 128 131 132 135 140 150 154 158 158 166 160 159 163 159 153 157 160
252 172 206 268 252 219 253 267 224 253 283 253 239 331 283 237 229 237 118 68 135 169 145 157 171 173 184 173 160 156 169 174 174 139 138 174 182 184 168 165 161 165 181 186 165 163 157 167 163 160 158 159 167 163
247 226 208 228 290 297 283 262 279 274 252 253 286 234 230 243 236 110 107 43 53 46 121 142 147 184 164 122 104 110 112 107 91 117 125 111 87 63 116 167 188 164 178 176 169 164 166 165 161 166 158 161 170 163
243 263 245 173 244 235 277 278 252 247 254 293 265 243 257 300 5 40 44 58 67 86 99 100 91 74 114 132 136 139 131 135 122 114 116 107 108 113 112 114 137 150 160 170 166 164 164 159 163 163 158 162 161 160
222 166 289 254 263 238 235 235 260 356 45 288 273 281 311 24 23 324 157 114 265 224 184 169 151 134 113 118 144 167 171 171 172 185 204 182 166 167 152 143 147 152 151 153 156 162 158 159 164 160 156 154 147 148
185 174 256 204 220 236 212 206 290 350 268 267 300 289 279 240 204 210 238 222 223 223 208 183 163 183 178 175 170 172 187 196 216 258 227 215 155 156 158 159 156 152 151 149 145 149 154 150 143 139 136 138 140 140
240 218 242 238 254 202 201 302 269 253 247 252 241 259 274 310 271 221 216 218 217 198 190 194 197 210 199 194 180 177 182 201 207 199 139 124 136 150 158 164 164 162 157 155 151 149 145 142 145 146 150 150 150 150
219 223 248 241 242 131 255 246 248 246 230 217 238 214 220 246 251 188 202 197 199 208 212 208 196 191 186 150 148 145 131 172 176 182 168 162 158 164 165 166 167 165 158 157 156 157 157 152 153 155 151 150 155 152
260 241 247 264 237 223 148 266 256 272 241 254 255 247 228 258 269 116 183 198 208 210 210 191 154 161 163 171 169 163 164 164 170 170 168 171 175 169 165 163 163 161 159 157 157 159 154 153 151 149 151 151 147 145
Height
676 678 681 682 683 684 686 687 688 691 693 696 697 699 702 708 712 719 724 730 732 733 732 731 731 733 738 743 746 753 759 761 761 760 757 754 752 746 745 740 744 752 759 763 765 766 764 739 744 753 747 747 748 750
669 672 674 675 676 677 677 678 679 681 685 687 687 690 693 699 706 714 720 727 733 736 743 741 738 737 739 743 747 753 749 748 750 756 752 748 747 740 741 745 736 747 740 748 745 745 745 741 748 747 745 745 747 752
663 666 668 669 669 669 669 669 670 672 676 677 679 681 685 691 700 710 714 724 736 743 746 746 741 742 743 745 746 752 751 750 748 750 755 754 748 737 741 737 735 731 729 736 739 738 737 740 741 743 742 745 747 751
658 661 663 663 661 660 659 658 659 660 663 665 670 674 678 684 694 706 712 724 729 734 742 748 744 744 746 747 749 750 751 753 755 755 755 755 753 740 741 738 745 743 740 734 735 734 734 735 739 742 745 746 747 751
655 657 658 657 655 652 649 642 640 641 647 656 664 672 678 684 695 704 714 722 726 727 734 743 747 746 747 749 751 752 754 756 758 759 758 756 748 747 743 742 741 738 737 743 744 740 739 738 739 743 744 745 747 748
653 654 655 653 649 643 633 623 620 630 642 652 662 673 680 689 693 704 719 719 721 724 730 745 743 745 747 750 751 752 754 756 757 758 754 749 747 755 753 741 737 737 736 733 733 733 734 735 735 736 739 741 745 750
651 653 653 651 648 638 624 614 617 630 642 655 666 678 686 688 695 704 710 715 722 724 727 740 742 743 747 750 752 752 754 754 755 756 754 752 750 750 748 745 741 736 731 728 728 728 727 727 727 732 729 737 744 749
652 654 654 653 649 642 632 626 631 638 650 663 675 685 692 698 705 711 717 720 723 726 727 732 738 742 745 748 750 749 751 754 753 751 748 746 743 743 741 732 730 728 727 725 725 725 724 724 723 722 728 737 743 748
653 657 658 658 655 653 649 644 647 653 663 674 684 692 698 704 712 721 723 724 726 730 728 731 733 738 739 741 745 749 751 754 747 744 745 746 739 734 722 721 720 720 719 719 718 717 716 715 715 716 726 735 742 746
656 660 662 665 665 664 665 664 664 669 677 684 689 697 713 718 721 724 729 731 733 732 731 729 726 734 735 739 743 749 749 749 742 734 732 732 726 720 713 712 712 711 711 711 711 711 711 710 711 718 724 732 739 745
660 664 667 671 673 674 677 678 680 683 686 692 700 712 719 721 721 724 736 737 740 742 733 728 722 724 730 738 740 739 744 741 737 724 722 715 711 705 702 701 700 700 701 702 702 702 703 706 711 718 724 731 738 744
664 669 672 676 679 682 684 687 690 693 696 698 705 717 724 724 726 731 735 735 734 729 720 722 720 719 727 731 737 740 738 737 730 715 719 717 702 693 689 692 694 695 695 693 691 692 696 701 708 714 722 731 738 744
668 673 678 681 685 688 691 694 696 698 701 704 710 720 719 727 730 730 733 727 724 717 713 714 719 715 726 730 737 739 739 736 720 720 710 698 691 691 693 697 700 702 703 698 693 691 696 703 710 716 724 732 740 746
673 677 682 686 690 693 697 700 702 704 706 709 715 722 718 722 716 710 708 706 709 710 714 713 715 721 723 729 734 730 724 721 719 711 699 691 698 704 704 705 704 710 710 707 705 704 707 712 718 723 728 736 742 748
678 683 687 692 695 699 704 707 709 711 711 710 710 712 711 708 707 708 709 708 707 708 712 714 719 722 719 728 724 721 721 718 704 698 692 698 706 709 710 710 710 713 714 713 713 714 718 721 725 731 737 741 745 750
686 691 695 698 703 707 712 715 717 717 716 712 709 710 705 707 712 715 712 711 710 710 710 716 722 723 721 716 715 714 707 700 691 692 702 703 710 712 712 713 715 716 716 718 719 722 725 728 732 737 741 745 749 753
692 693 699 705 710 714 719 722 724 724 721 711 710 712 710 710 709 713 711 709 711 713 712 709 714 714 708 707 701 696 696 695 698 702 707 710 713 712 713 716 718 719 720 721 724 727 730 734 737 741 745 749 752 756
694 698 705 710 715 721 724 724 723 720 714 711 710 712 715 719 715 711 709 709 709 709 709 706 698 701 704 701 690 689 692 703 707 710 711 713 714 713 714 717 720 721 722 724 727 731 734 737 740 743 747 751 754 758
700 704 708 714 718 721 723 724 724 719 710 708 707 707 712 712 709 705 706 705 705 704 705 703 703 699 692 691 695 701 704 704 706 708 711 713 713 713 714 717 720 722 724 726 729 731 734 735 738 743 746 750 754 758
706 711 714 717 720 719 718 718 718 715 708 709 709 706 706 703 703 704 705 703 702 704 703 697 693 691 692 697 700 701 704 706 706 707 707 711 713 713 715 717 718 721 723 724 727 730 733 736 740 743 746 749 752 756
715 720 723 724 725 723 723 717 714 709 707 704 700 701 701 703 702 702 701 702 703 696 692 689 690 695 698 701 702 703 704 706 706 707 707 708 712 712 714 714 717 719 720 723 727 730 733 736 739 742 745 748 751 755
718 723 726 727 727 723 717 715 713 711 712 703 701 700 696 695 695 698 700 698 693 689 688 690 691 695 699 701 703 704 705 706 707 708 708 709 710 712 713 714 715 717 720 723 725 729 732 735 738 741 744 747 751 754
723 726 728 729 729 721 714 713 711 706 704 697 696 694 689 688 690 696 693 690 688 689 690 691 692 695 697 701 703 705 705 705 706 707 708 709 709 711 712 714 715 717 720 723 725 728 731 734 737 740 743 747 751 755
724 726 726 723 721 712 713 710 707 705 702 698 693 688 687 688 693 690 682 681 681 687 689 691 694 698 701 701 701 703 705 706 706 708 709 709 710 712 713 715 716 718 720 722 725 728 731 734 737 740 743 746 750 754
727 725 726 716 715 712 709 702 701 698 696 693 693 689 689 690 687 681 674 673 681 685 688 691 693 694 695 697 699 702 705 705 705 708 709 710 710 713 715 716 718 720 721 723 726 728 731 733 736 739 742 746 749 753
722 719 721 712 709 710 701 700 697 695 693 692 688 688 688 684 679 672 668 677 681 684 687 689 690 693 695 696 699 702 704 705 706 707 710 710 711 712 713 715 718 720 721 722 724 727 730 733 735 738 742 745 749 752
716 711 714 713 713 712 709 703 700 698 694 690 686 687 685 678 671 674 684 687 687 688 689 690 692 693 694 696 700 702 704 705 706 708 710 711 712 712 712 713 714 716 719 721 723 726 729 732 735 738 741 745 748 751
713 714 714 713 713 712 710 707 703 696 691 690 691 687 680 675 677 687 690 691 692 691 692 692 694 694 695 696 699 702 705 706 708 709 711 712 713 713 714 714 715 717 718 721 723 726 729 732 735 739 742 745 748 751
712 713 714 716 715 709 706 702 697 694 699 699 694 685 684 687 692 692 693 693 693 693 693 694 695 696 697 699 701 703 705 706 707 708 708 708 712 714 714 715 717 718 720 722 725 727 730 732 735 738 742 745 748 751
712 715 713 709 712 704 697 700 701 701 700 701 700 695 690 688 690 692 692 692 692 692 692 692 694 696 697 699 700 703 704 705 705 706 704 704 706 710 713 715 717 719 721 723 725 727 730 733 735 739 743 746 750 753
710 711 709 703 698 697 701 702 702 701 700 698 697 696 693 691 689 687 688 689 689 690 691 692 693 694 694 695 697 699 701 703 704 705 706 706 708 710 712 714 716 718 721 723 726 728 731 734 737 740 744 747 750 753
707 704 703 701 695 700 702 700 698 695 690 691 690 689 691 691 684 681 682 684 686 687 688 688 689 691 692 693 695 696 698 699 701 703 705 706 708 709 712 714 716 718 721 723 726 728 731 734 737 740 744 747 750 753
705 704 702 699 695 694 697 700 692 687 685 685 680 679 682 684 678 677 680 681 683 684 684 686 687 688 690 693 695 696 698 699 700 702 703 705 706 709 711 713 715 718 721 723 726 729 732 734 737 741 744 747 751 754